This is the latest recevied weather packets stored in our database for station/object K8RLH. If no packets are shown the sender has not sent any weather packets the latest 10 day(s).
| Time | Temp. | Humidity | Pressure | Rain* | Wind** | Luminosity | Snow |
|---|---|---|---|---|---|---|---|
| 1777919779 | 23.33° C | 32% | 1017.7 hPa | 0 mm | - | 59 W/m² | - |
| 1777919476 | 23.33° C | 32% | 1017.9 hPa | 0 mm | - | 61 W/m² | - |
| 1777919174 | 23.33° C | 29% | 1017.9 hPa | 0 mm | - | 70 W/m² | - |
| 1777918871 | 23.89° C | 30% | 1017.9 hPa | 0 mm | - | 91 W/m² | - |
| 1777918568 | 23.33° C | 32% | 1017.9 hPa | 0 mm | - | 65 W/m² | - |
| 1777918266 | 23.33° C | 33% | 1018.1 hPa | 0 mm | - | 92 W/m² | - |
| 1777917964 | 23.33° C | 32% | 1018.2 hPa | 0 mm | - | 59 W/m² | - |
| 1777917663 | 23.33° C | 33% | 1018.3 hPa | 0 mm | - | 70 W/m² | - |
| 1777917360 | 23.33° C | 34% | 1018.3 hPa | 0 mm | - | 61 W/m² | - |
| 1777917056 | 22.78° C | 36% | 1018.2 hPa | 0 mm | - | 64 W/m² | - |
| 1777916755 | 22.78° C | 35% | 1018.3 hPa | 0 mm | - | 53 W/m² | - |
| 1777916451 | 23.33° C | 32% | 1018.4 hPa | 0 mm | - | 50 W/m² | - |
| 1777916148 | 22.78° C | 28% | 1018.3 hPa | 0 mm | - | 55 W/m² | - |
| 1777915845 | 22.78° C | 29% | 1018.5 hPa | 0 mm | - | 50 W/m² | - |
| 1777915541 | 22.78° C | 33% | 1018.5 hPa | 0 mm | - | 54 W/m² | - |
| 1777915238 | 22.78° C | 34% | 1018.5 hPa | 0 mm | - | 67 W/m² | - |
| 1777914935 | 22.22° C | 36% | 1018.5 hPa | 0 mm | - | 90 W/m² | - |
| 1777914632 | 22.22° C | 38% | 1018.7 hPa | 0 mm | - | 54 W/m² | - |
| 1777914328 | 22.22° C | 37% | 1018.5 hPa | 0 mm | - | 105 W/m² | - |
| 1777914026 | 22.22° C | 36% | 1018.8 hPa | 0 mm | - | 65 W/m² | - |
| 1777913721 | 21.67° C | 36% | 1018.8 hPa | 0 mm | - | 134 W/m² | - |
| 1777913418 | 21.67° C | 36% | 1018.8 hPa | 0 mm | - | 266 W/m² | - |
| 1777913115 | 21.67° C | 38% | 1019 hPa | 0 mm | - | 132 W/m² | - |
| 1777912811 | 21.67° C | 37% | 1019 hPa | 0 mm | - | 197 W/m² | - |
| 1777912507 | 22.22° C | 38% | 1019.1 hPa | 0 mm | - | 75 W/m² | - |
* Rain latest hour (hover to see other rain measurements)
** Current wind speed in m/s (hover to see current wind gust speed)